Tracking 23726 objects as of 25-Sep-2021
HD Live streaming from Space Station
objects crossing your sky now

GALAXY 9

Track GALAXY 9 now!
GALAXY 9 is classified as:


NORAD ID: 23877
Int'l Code: 1996-033A
Perigee: 35,959.7 km
Apogee: 36,039.1 km
Inclination: 9.3 °
Period: 1,446.6 minutes
Semi major axis: 42370 km
RCS: 8.797 m2 (large)
Launch date: May 24, 1996
Source: United States (US)
Launch site: AIR FORCE EASTERN TEST RANGE (AFETR)

Voice and vision communication; 24 C-band; North America, Caribbean.
aabbcc
Your satellite tracking list
Your tracking list is empty




NASA's NSSDC Master Catalog

Two Line Element Set (TLE):
1 23877U 96033A   21267.42296685  .00000015  00000-0  00000+0 0  9993
2 23877   9.2800  43.8834 0009376 104.9554 203.5779  0.99542625 92502
Source of the keplerian elements: AFSPC